Calgary Springbank,

9:48 PM MDT on May 25, 2017 (GMT -0600)
Calgary Springbank

Weather History for CYBW - November, 2010

Change the Weather History Date:

Thursday, November 25, 2010

  Actual Average Record
Temperature  
Mean Temperature 11 °F -  
Max Temperature 30 °F 28 °F 50 °F (2005)
Min Temperature -8 °F 9 °F -16 °F (1996)
Degree Days  
Heating Degree Days 54    
Moisture  
Dew Point 15 °F    
Average Humidity 65    
Maximum Humidity 79    
Minimum Humidity 50    
Precipitation  
Precipitation 0.00 in - - ()
Sea Level Pressure  
Sea Level Pressure 29.87 in    
Wind  
Wind Speed 10 mph ()    
Max Wind Speed 20 mph    
Max Gust Speed 28 mph    
Visibility 15.0 miles    
Events Snow    
Averages and records for this station are not official NWS values.
T = Trace of Precipitation, MM = Missing Value Source: Averaged Metar Reports

Daily Weather History Graph

Daily Weather History Graph

Search for Another Location

Airport or City:

Trip Planner

Search our weather history database for the weather conditions in past years. The results will help you decide how hot, cold, wet, or windy it might be!

Date:

Astronomy

Nov. 25, 2010 Rise Set
Actual Time 8:10 AM MST 4:38 PM MST
Civil Twilight 7:32 AM MST 5:16 PM MST
Nautical Twilight 6:51 AM MST 5:57 PM MST
Astronomical Twilight 6:11 AM MST 6:36 PM MST
Moon 8:43 PM MST (11/25) 11:42 AM MST (11/25)
Length of Visible Light 9h 43m
Length of Day
8h 27m
Waning Gibbous, 82% of the Moon is Illuminated
Nov 25
Waning Gibbous
Nov 28
Last Quarter
Dec 5
New
Dec 13
First Quarter
Dec 21
Full

Hourly Weather History & Observations

Time (MST) Temp. Windchill Dew Point Humidity Pressure Visibility Wind Dir Wind Speed Gust Speed Precip Events Conditions
5:00 AM 21 °F - 13 °F 59% 29.83 in 15 mi NW 12.7 mph - -   Mostly Cloudy
5:00 AM 21.2 °F 10.1 °F 12.2 °F 68% 29.83 in 15.0 mi WNW 10.4 mph - N/A   Mostly Cloudy
6:00 AM 17.6 °F 4.3 °F 10.4 °F 73% 29.83 in 15.0 mi NNW 12.7 mph - N/A   Overcast
7:00 AM 17.6 °F 5.0 °F 10.4 °F 73% 29.83 in 15.0 mi North 11.5 mph - N/A   Overcast
8:00 AM 17.6 °F 7.3 °F 12.2 °F 79% 29.86 in 30.0 mi North 8.1 mph - N/A   Overcast
9:00 AM 17.6 °F 5.0 °F 10.4 °F 73% 29.88 in 30.0 mi NNW 11.5 mph - N/A   Mostly Cloudy
10:00 AM 17.6 °F 5.7 °F 10.4 °F 73% 29.88 in 30.0 mi NNW 10.4 mph - N/A   Mostly Cloudy
11:00 AM 21 °F - 13 °F 61% 29.90 in 28 mi NNW 9.2 mph - -   Scattered Clouds
11:00 AM 21.2 °F 11.7 °F 14.0 °F 74% 29.90 in 30.0 mi NNW 8.1 mph - N/A   Mostly Cloudy
12:00 PM 26.6 °F 20.0 °F 15.8 °F 64% 29.90 in 30.0 mi NW 5.8 mph - N/A   Mostly Cloudy
1:00 PM 26.6 °F 18.2 °F 17.6 °F 69% 29.90 in 30.0 mi WNW 8.1 mph - N/A   Mostly Cloudy
2:00 PM 26.6 °F 18.2 °F 15.8 °F 64% 29.89 in 30.0 mi NW 8.1 mph - N/A   Mostly Cloudy
3:00 PM 30.2 °F 18.5 °F 17.6 °F 60% 29.91 in 30.0 mi West 17.3 mph - N/A   Mostly Cloudy
4:00 PM 30.2 °F 18.9 °F 17.6 °F 60% 29.91 in 30.0 mi WNW 16.1 mph - N/A Snow Low Drifting Snow
5:00 PM 27 °F - 16 °F 50% 29.87 in 28 mi NW 12.7 mph - -   Scattered Clouds
5:00 PM 26.6 °F 15.7 °F 15.8 °F 64% 29.87 in 30.0 mi WNW 12.7 mph - N/A   Mostly Cloudy
6:00 PM 24.8 °F 16.9 °F 14.0 °F 64% 29.88 in 15.0 mi NW 6.9 mph - N/A   Mostly Cloudy
7:00 PM 26.6 °F 20.0 °F 15.8 °F 64% 29.89 in 15.0 mi NW 5.8 mph - N/A   Scattered Clouds
8:00 PM 28.4 °F 17.5 °F 15.8 °F 59% 29.90 in 15.0 mi NW 13.8 mph - N/A   Partly Cloudy
9:00 PM 30.2 °F 18.5 °F 17.6 °F 60% 29.90 in 15.0 mi WNW 17.3 mph - N/A   Scattered Clouds
10:00 PM 30.2 °F 17.8 °F 19.4 °F 64% 29.72 in 15.0 mi West 19.6 mph 27.6 mph N/A   Mostly Cloudy